Location: Civry
(47.2902°N, 4.6156°E)
Time: 11:15:13
(UTC+00:00)

Cosmos 2184 Rocket - Pass Details

Date: 09 April 2020
Orbit: 958 x 1003 km, 82.9° (Epoch: 25 May)

Event Time Altitude Azimuth Distance (km) Brightness Sun altitude
Rises 18:59:46 0° 350° (N) 3,708 7.5 -6.8°
Reaches altitude 10° 19:02:18 10° 351° (N) 2,749 6.8 -7.2°
Maximum altitude 19:08:37 88° 262° (W) 982 4.1 -8.2°
Drops below altitude 10° 19:14:49 10° 174° (S) 2,700 6.1 -9.2°
Sets 19:17:18 0° 175° (S) 3,637 6.7 -9.6°
